Location: Bonny Doon Airfield
(37.0704°N, 122.1252°W)
Time: 14:14:02
(UTC-07:00)

OTV 5 (USA 277) - Pass Details

Date: 16 October 2017
Orbit: 404 x 417 km, 43.0° (Epoch: 07 September)

Event Time Altitude Azimuth Distance (km) Brightness Sun altitude
Rises 19:33:54 0° 288° (WNW) 2,352 ? -13.5°
Reaches altitude 10° 19:36:11 10° 300° (WNW) 1,490 ? -14.0°
Maximum altitude 19:39:10 28° 2° (N) 810 ? -14.6°
Enters shadow 19:40:31 21° 42° (NE) 989 ? -14.9°
